Location: Ahstedt
(52.2048°N, 10.1060°E)
Time: 00:04:42
(UTC+00:00)

Okean 1-7 - Pass Details

Date: 18 January 2026
Orbit: 566 x 588 km, 82.5° (Epoch: 9 February)

Event Time Altitude Azimuth Distance (km) Brightness Sun altitude
Exits shadow 04:51:27 - 358° (N) 1,989 5.6 -21.9°
Reaches altitude 10° 04:51:42 10° 359° (N) 1,885 5.5 -21.9°
Maximum altitude 04:55:45 49° 75° (ENE) 749 3.8 -21.3°
Drops below altitude 10° 04:59:46 10° 150° (SSE) 1,882 6.0 -20.6°
Sets 05:02:01 0° 156° (SSE) 2,780 6.8 -20.3°
